, AK

(GMT )
Denali Park

Weather History for PAIN - November, 2011

Change the Weather History Date:

Friday, November 18, 2011

  Actual Average Record
Temperature  
Mean Temperature -22 °F -  
Max Temperature -14 °F 16 °F 48 °F (2014)
Min Temperature -31 °F 0 °F -31 °F (2011)
Degree Days  
Heating Degree Days 88    
Moisture  
Dew Point -32 °F    
Average Humidity 73    
Maximum Humidity 84    
Minimum Humidity 64    
Precipitation  
Precipitation 0.00 in - - ()
Sea Level Pressure  
Sea Level Pressure 30.06 in    
Wind  
Wind Speed 0 mph (NE)    
Max Wind Speed 4 mph    
Max Gust Speed -    
Visibility 10 miles    
Events      
Averages and records for this station are not official NWS values.
T = Trace of Precipitation, MM = Missing Value Source: NWS Daily Summary

Daily Weather History Graph

Daily Weather History Graph

Search for Another Location

Airport or City:

Trip Planner

Search our weather history database for the weather conditions in past years. The results will help you decide how hot, cold, wet, or windy it might be!

Date:

Astronomy

Nov. 18, 2011 Rise Set
Actual Time 9:30 AM AKST 3:50 PM AKST
Civil Twilight 8:29 AM AKST 4:51 PM AKST
Nautical Twilight 7:29 AM AKST 5:51 PM AKST
Astronomical Twilight 6:33 AM AKST 6:47 PM AKST
Moon No Moon Rise 2:00 PM AKST (11/18)
Length of Visible Light 8h 21m
Length of Day
6h 20m
Waning Gibbous, 47% of the Moon is Illuminated
Nov 18
Waning Gibbous
Nov 24
New
Dec 2
First Quarter
Dec 10
Full
Dec 17
Last Quarter

Hourly Weather History & Observations

Time (AKST) Temp. Windchill Dew Point Humidity Pressure Visibility Wind Dir Wind Speed Gust Speed Precip Events Conditions
12:16 AM -29.2 °F - -34.6 °F 75% 30.14 in 10.0 mi Calm Calm - N/A   Clear
12:36 AM -29.2 °F - -34.6 °F 75% 30.14 in 10.0 mi Calm Calm - N/A   Clear
12:56 AM -29.2 °F - -34.6 °F 75% 30.13 in 10.0 mi Calm Calm - N/A   Clear
1:16 AM -29.2 °F - -36.4 °F 68% 30.13 in 10.0 mi Calm Calm - N/A   Clear
1:36 AM -29.2 °F - -36.4 °F 68% 30.12 in 10.0 mi Calm Calm - N/A   Clear
1:56 AM -31.0 °F - -36.4 °F 75% 30.11 in 10.0 mi Calm Calm - N/A   Clear
2:16 AM -29.2 °F - -36.4 °F 68% 30.11 in 10.0 mi Calm Calm - N/A   Clear
2:36 AM -29.2 °F - -36.4 °F 68% 30.10 in 10.0 mi Calm Calm - N/A   Clear
2:56 AM -29.2 °F - -34.6 °F 75% 30.10 in 10.0 mi Calm Calm - N/A   Clear
3:16 AM -29.2 °F - -34.6 °F 75% 30.09 in 10.0 mi Calm Calm - N/A   Clear
3:36 AM -29.2 °F - -34.6 °F 75% 30.08 in 10.0 mi Calm Calm - N/A   Clear
3:56 AM -29.2 °F - -34.6 °F 75% 30.07 in 10.0 mi Calm Calm - N/A   Clear
4:16 AM -29.2 °F - -34.6 °F 75% 30.06 in 10.0 mi Calm Calm - N/A   Clear
4:36 AM -29.2 °F - -34.6 °F 75% 30.05 in 10.0 mi Calm Calm - N/A   Clear
4:56 AM -29.2 °F -41.2 °F -36.4 °F 68% 30.04 in 10.0 mi SE 3.5 mph - N/A   Clear
5:16 AM -29.2 °F - -36.4 °F 68% 30.03 in 10.0 mi Calm Calm - N/A   Clear
5:36 AM -29.2 °F - -36.4 °F 68% 30.02 in 10.0 mi Calm Calm - N/A   Clear
5:56 AM -29.2 °F - -36.4 °F 68% 30.02 in 10.0 mi Calm Calm - N/A   Clear
6:16 AM -29.2 °F - -34.6 °F 75% 30.01 in 10.0 mi Calm Calm - N/A   Clear
6:36 AM -29.2 °F - -34.6 °F 75% 30.00 in 10.0 mi Calm Calm - N/A   Clear
6:56 AM -29.2 °F - -36.4 °F 68% 30.00 in 10.0 mi Calm Calm - N/A   Clear
7:16 AM -29.2 °F - -36.4 °F 68% 30.00 in 10.0 mi Calm Calm - N/A   Clear
7:36 AM -31.0 °F - -36.4 °F 75% 30.00 in 10.0 mi Calm Calm - N/A   Clear
7:56 AM -31.0 °F - -36.4 °F 75% 29.99 in 10.0 mi Calm Calm - N/A   Clear
8:16 AM -31.0 °F - -36.4 °F 75% 29.99 in 10.0 mi Calm Calm - N/A   Clear
8:36 AM -31.0 °F - -36.4 °F 75% 29.99 in 10.0 mi Calm Calm - N/A   Clear
8:56 AM -31.0 °F - -36.4 °F 75% 29.99 in 10.0 mi Calm Calm - N/A   Clear
9:16 AM -31.0 °F - -36.4 °F 75% 29.99 in 10.0 mi Calm Calm - N/A   Clear
9:36 AM -31.0 °F - -36.4 °F 75% 30.00 in 10.0 mi Calm Calm - N/A   Clear
9:56 AM -29.2 °F - -36.4 °F 68% 30.00 in 10.0 mi Calm Calm - N/A   Clear
10:16 AM -29.2 °F - -36.4 °F 68% 30.00 in 10.0 mi Calm Calm - N/A   Clear
10:36 AM -29.2 °F - -34.6 °F 75% 30.00 in 10.0 mi Calm Calm - N/A   Clear
10:56 AM -27.4 °F - -31.0 °F 83% 30.00 in 10.0 mi Calm Calm - N/A   Clear
11:16 AM -23.8 °F - -29.2 °F 76% 30.01 in 10.0 mi Calm Calm - N/A   Clear
11:36 AM -20.2 °F - -27.4 °F 69% 30.01 in 10.0 mi Calm Calm - N/A   Clear
12:16 PM -18.4 °F - -25.6 °F 70% 30.01 in 7.0 mi Calm Calm - N/A   Clear
12:36 PM -18.4 °F - -23.8 °F 76% 30.02 in 10.0 mi Calm Calm - N/A   Clear
12:56 PM -16.6 °F - -23.8 °F 70% 30.02 in 10.0 mi Calm Calm - N/A   Clear
1:16 PM -16.6 °F - -23.8 °F 70% 30.03 in 10.0 mi Calm Calm - N/A   Clear
1:36 PM -14.8 °F - -22.0 °F 70% 30.03 in 10.0 mi Calm Calm - N/A   Clear
2:16 PM -14.8 °F -24.8 °F -23.8 °F 64% 30.04 in 10.0 mi NNE 3.5 mph - N/A   Clear
2:36 PM -16.6 °F - -23.8 °F 70% 30.04 in 10.0 mi Calm Calm - N/A   Clear
2:56 PM -18.4 °F -28.9 °F -23.8 °F 76% 30.05 in 10.0 mi North 3.5 mph - N/A   Clear
3:16 PM -16.6 °F - -22.0 °F 76% 30.05 in 10.0 mi Calm Calm - N/A   Clear
3:36 PM -18.4 °F - -22.0 °F 84% 30.06 in 10.0 mi Calm Calm - N/A   Clear
3:56 PM -18.4 °F - -23.8 °F 76% 30.06 in 10.0 mi Calm Calm - N/A   Clear
4:16 PM -20.2 °F - -25.6 °F 76% 30.07 in 10.0 mi Calm Calm - N/A   Clear
4:36 PM -23.8 °F - -29.2 °F 76% 30.08 in 10.0 mi Calm Calm - N/A   Clear
4:56 PM -23.8 °F - -29.2 °F 76% 30.09 in 10.0 mi Calm Calm - N/A   Clear
5:16 PM -25.6 °F - -29.2 °F 83% 30.09 in 10.0 mi Calm Calm - N/A   Clear
5:36 PM -25.6 °F - -29.2 °F 83% 30.10 in 10.0 mi Calm Calm - N/A   Clear
5:56 PM -25.6 °F - -32.8 °F 69% 30.11 in 10.0 mi Calm Calm - N/A   Clear
6:16 PM -27.4 °F - -32.8 °F 75% 30.11 in 10.0 mi Calm Calm - N/A   Clear
6:36 PM -27.4 °F - -32.8 °F 75% 30.11 in 10.0 mi Calm Calm - N/A   Clear
6:56 PM -27.4 °F - -32.8 °F 75% 30.12 in 10.0 mi Calm Calm - N/A   Clear
7:16 PM -27.4 °F - -32.8 °F 75% 30.13 in 10.0 mi Calm Calm - N/A   Clear
7:36 PM -29.2 °F - -34.6 °F 75% 30.14 in 10.0 mi Calm Calm - N/A   Clear
7:56 PM -29.2 °F - -34.6 °F 75% 30.13 in 10.0 mi Calm Calm - N/A   Clear
8:16 PM -29.2 °F - -34.6 °F 75% 30.14 in 10.0 mi Calm Calm - N/A   Clear
8:36 PM -29.2 °F - -34.6 °F 75% 30.14 in 10.0 mi Calm Calm - N/A   Clear
8:56 PM -29.2 °F - -34.6 °F 75% 30.14 in 10.0 mi Calm Calm - N/A   Clear
9:16 PM -31.0 °F - -36.4 °F 75% 30.14 in 10.0 mi Calm Calm - N/A   Clear
9:36 PM -31.0 °F - -36.4 °F 75% 30.14 in 10.0 mi Calm Calm - N/A   Clear
9:56 PM -31.0 °F - -36.4 °F 75% 30.14 in 10.0 mi Calm Calm - N/A   Clear
10:16 PM -31.0 °F - -36.4 °F 75% 30.14 in 10.0 mi Calm Calm - N/A   Clear
10:36 PM -32.8 °F - -38.2 °F 75% 30.15 in 10.0 mi Calm Calm - N/A   Clear
10:56 PM -32.8 °F - -38.2 °F 75% 30.15 in 10.0 mi Calm Calm - N/A   Clear
11:16 PM -32.8 °F - -38.2 °F 75% 30.15 in 10.0 mi Calm Calm - N/A   Clear
11:36 PM -32.8 °F - -38.2 °F 75% 30.15 in 10.0 mi Calm Calm - N/A   Clear
11:56 PM -32.8 °F - -38.2 °F 75% 30.15 in 10.0 mi Calm Calm - N/A   Clear